Location: D�derode
(51.8092°N, 10.1065°E)
Time: 07:06:16
(UTC+00:00)

OPS 6432 - Pass Details

Date: 01 December 2020
Orbit: 375 x 1711 km, 63.3° (Epoch: 09 November)

Event Time Altitude Azimuth Distance (km) Brightness Sun altitude
Rises 17:11:05 0° 224° (SW) 2,955 9.6 -17.4°
Reaches altitude 10° 17:13:40 10° 225° (SW) 1,863 8.4 -17.8°
Maximum altitude 17:17:41 86° 311° (NW) 472 4.4 -18.4°
Enters shadow 17:18:25 53° 40° (NE) 563 4.5 -18.5°
